Location: Invercargill
(46.4000°S, 168.3500°E)
Time: 18:54:10
(UTC+13:00)

Lacrosse 5 - Pass Details

Date: 24 January 2019
Orbit: 715 x 724 km, 57.0° (Epoch: 16 October)

Event Time Altitude Azimuth Distance (km) Brightness Sun altitude
Rises 22:50:05 0° 240° (WSW) 3,161 6.9 -11.8°
Reaches altitude 10° 22:53:01 10° 256° (WSW) 2,231 5.4 -12.2°
Maximum altitude 22:56:44 20° 303° (WNW) 1,627 3.8 -12.6°
Drops below altitude 10° 23:00:24 10° 349° (N) 2,208 4.0 -13.0°
Enters shadow 23:01:13 - 355° (N) 2,443 4.2 -13.1°
